DT_LEITURA;HR_LEITURA;MED-PressaoAtm[hPa];VAL-TempExt[oC];VAL-UmidExt[%UR];VAL-TempInt[oC];VAL-UmidInt[%UR];Dir-Vento[grau];Vel-Vento[m/s];Precipitação[mm/h]
21/04/2026;00:04:00;1016,7;16,3;;21,7;69;;;0,0
21/04/2026;00:09:00;1016,6;16,3;;21,6;69;;;0,0
21/04/2026;00:14:00;1016,5;16,2;;21,5;69;;;0,0
21/04/2026;00:19:00;1016,5;16,1;;21,5;69;;;0,0
21/04/2026;00:24:00;1016,4;16,0;;21,4;69;;;0,0
21/04/2026;00:29:00;1016,4;15,9;;21,3;69;;;0,0
21/04/2026;00:34:00;1016,4;15,9;;21,3;69;;;0,0
21/04/2026;00:39:00;1016,5;15,9;;21,2;69;;;0,0
21/04/2026;00:44:00;1016,4;15,9;;21,2;69;;;0,0
21/04/2026;00:49:00;1016,5;15,9;;21,2;69;;;0,0
21/04/2026;00:54:00;1016,5;15,8;;21,1;69;;;0,0
21/04/2026;00:59:00;1016,5;15,8;;21,1;69;;;0,0
21/04/2026;01:04:00;1016,5;15,7;;21,0;69;;;0,0
21/04/2026;01:09:00;1016,5;15,5;;21,0;69;;;0,0
21/04/2026;01:14:00;1016,5;15,4;;21,0;69;;;0,0
21/04/2026;01:19:00;1016,5;15,2;;21,0;69;;;0,0
21/04/2026;01:24:00;1016,5;15,1;;20,9;69;;;0,0
21/04/2026;01:29:00;1016,5;14,9;;20,9;69;;;0,0
21/04/2026;01:34:00;1016,4;14,8;;20,8;69;;;0,0
21/04/2026;01:39:00;1016,3;14,6;;20,8;69;;;0,0
21/04/2026;01:44:00;1016,2;14,5;;20,7;69;;;0,0
21/04/2026;01:49:00;1016,1;14,5;;20,7;69;;;0,0
21/04/2026;01:54:00;1016,1;14,5;;20,6;69;;;0,0
21/04/2026;01:59:00;1016,1;14,6;;20,6;69;;;0,0
21/04/2026;02:04:00;1016,1;14,7;;20,6;69;;;0,0
21/04/2026;02:09:00;1016,1;14,8;;20,6;69;;;0,0
21/04/2026;02:14:00;1016,0;15,0;;20,6;69;;;0,0
21/04/2026;02:19:00;1016,0;15,0;;20,6;69;;;0,0
21/04/2026;02:24:00;1016,0;15,1;;20,6;69;;;0,0
21/04/2026;02:29:00;1016,0;15,3;;20,6;69;;;0,0
21/04/2026;02:34:00;1016,0;15,4;;20,7;69;;;0,0
21/04/2026;02:39:00;1016,0;15,5;;20,7;69;;;0,0
21/04/2026;02:44:00;1016,0;15,6;;20,7;69;;;0,0
21/04/2026;02:49:00;1016,0;15,7;;20,8;69;;;0,0
21/04/2026;02:54:00;1016,0;15,8;;20,8;69;;;0,0
21/04/2026;02:59:00;1016,0;15,8;;20,8;69;;;0,0
21/04/2026;03:04:00;1015,9;15,8;;20,8;69;;;0,0
21/04/2026;03:09:00;1015,9;15,7;;20,7;69;;;0,0
21/04/2026;03:14:00;1015,9;15,6;;20,7;69;;;0,0
21/04/2026;03:19:00;1015,9;15,5;;20,7;69;;;0,0
21/04/2026;03:24:00;1016,0;15,4;;20,6;69;;;0,0
21/04/2026;03:29:00;1015,9;15,2;;20,5;69;;;0,0
21/04/2026;03:34:00;1016,0;15,1;;20,5;69;;;0,0
21/04/2026;03:39:00;1016,0;14,9;;20,4;69;;;0,0
21/04/2026;03:44:00;1015,9;14,7;;20,3;69;;;0,0
21/04/2026;03:49:00;1015,9;14,6;;20,2;69;;;0,0
21/04/2026;03:54:00;1015,9;14,4;;20,1;69;;;0,0
21/04/2026;03:59:00;1016,0;14,2;;20,1;69;;;0,0
21/04/2026;04:04:00;1016,0;14,1;;20,0;70;;;0,0
21/04/2026;04:09:00;1016,0;13,9;;20,0;70;;;0,0
21/04/2026;04:14:00;1015,9;13,8;;19,9;70;;;0,0
21/04/2026;04:19:00;1015,9;13,7;;19,9;70;;;0,0
21/04/2026;04:24:00;1015,9;13,6;;19,9;70;;;0,0
21/04/2026;04:29:00;1015,9;13,5;;19,9;70;;;0,0
21/04/2026;04:34:00;1015,8;13,4;;19,9;70;;;0,0
21/04/2026;04:39:00;1015,8;13,4;;19,9;70;;;0,0
21/04/2026;04:44:00;1015,9;13,4;;19,8;70;;;0,0
21/04/2026;04:49:00;1015,9;13,3;;19,8;70;;;0,0
21/04/2026;04:54:00;1015,9;13,2;;19,8;70;;;0,0
21/04/2026;04:59:00;1016,0;13,1;;19,7;70;;;0,0
21/04/2026;05:04:00;1016,1;13,1;;19,7;70;;;0,0
21/04/2026;05:09:00;1016,1;13,0;;19,7;70;;;0,0
21/04/2026;05:14:00;1016,2;13,0;;19,6;70;;;0,0
21/04/2026;05:19:00;1016,3;13,0;;19,6;70;;;0,0
21/04/2026;05:24:00;1016,5;13,0;;19,6;70;;;0,0
21/04/2026;05:29:00;1016,6;12,9;;19,6;70;;;0,0
21/04/2026;05:34:00;1016,7;12,9;;19,6;70;;;0,0
21/04/2026;05:39:00;1016,7;12,9;;19,6;70;;;0,0
21/04/2026;05:44:00;1016,7;12,9;;19,6;70;;;0,0
21/04/2026;05:49:00;1016,7;13,0;;19,6;70;;;0,0
21/04/2026;05:54:00;1016,6;13,0;;19,6;70;;;0,0
21/04/2026;05:59:00;1016,6;13,1;;19,6;70;;;0,0
21/04/2026;06:04:00;1016,5;13,2;;19,6;70;;;0,0
21/04/2026;06:09:00;1016,5;13,2;;19,6;70;;;0,0
21/04/2026;06:14:00;1016,6;13,3;;19,6;70;;;0,0
21/04/2026;06:19:00;1016,5;13,3;;19,6;70;;;0,0
21/04/2026;06:24:00;1016,5;13,3;;19,6;70;;;0,0
21/04/2026;06:29:00;1016,6;13,3;;19,6;70;;;0,0
21/04/2026;06:34:00;1016,6;13,3;;19,6;70;;;0,0
21/04/2026;06:39:00;1016,6;13,3;;19,6;70;;;0,0
21/04/2026;06:44:00;1016,7;13,3;;19,6;70;;;0,0
21/04/2026;06:49:00;1016,8;13,3;;19,6;70;;;0,0
21/04/2026;06:54:00;1016,9;13,3;;19,6;70;;;0,0
21/04/2026;06:59:00;1017,0;13,3;;19,6;70;;;0,0
21/04/2026;07:04:00;1017,0;13,3;;19,6;70;;;0,0
21/04/2026;07:09:00;1017,0;13,3;;19,7;70;;;0,0
21/04/2026;07:14:00;1017,1;13,3;;19,7;70;;;0,0
21/04/2026;07:19:00;1017,1;13,2;;19,7;70;;;0,0
21/04/2026;07:24:00;1017,1;13,3;;19,8;70;;;0,0
21/04/2026;07:29:00;1017,2;13,4;;19,8;70;;;0,0
21/04/2026;07:34:00;1017,2;13,4;;19,8;70;;;0,0
21/04/2026;07:39:00;1017,3;13,5;;19,9;70;;;0,0
21/04/2026;07:44:00;1017,3;13,7;;19,9;70;;;0,0
21/04/2026;07:49:00;1017,1;13,8;;20,0;70;;;0,0
21/04/2026;07:54:00;1017,2;14,0;;20,1;70;;;0,0
21/04/2026;07:59:00;1017,4;14,3;;20,2;70;;;0,0
21/04/2026;08:04:00;1017,3;14,6;;20,3;70;;;0,0
21/04/2026;08:09:00;1017,4;15,1;;20,4;70;;;0,0
21/04/2026;08:14:00;1017,4;15,6;;20,5;70;;;0,0
21/04/2026;08:19:00;1017,5;16,1;99;20,7;70;;;0,0
21/04/2026;08:24:00;1017,6;16,5;97;20,8;70;;;0,0
21/04/2026;08:29:00;1017,6;16,8;95;20,9;70;;;0,0
21/04/2026;08:34:00;1017,7;17,0;94;21,0;70;;;0,0
21/04/2026;08:39:00;1017,7;17,2;93;21,1;70;;;0,0
21/04/2026;08:44:00;1017,8;17,3;91;21,2;70;;;0,0
21/04/2026;08:49:00;1017,9;17,4;90;21,3;70;;;0,0
21/04/2026;08:54:00;1018,0;17,5;89;21,4;70;;;0,0
21/04/2026;08:59:00;1018,0;17,7;89;21,5;70;;;0,0
21/04/2026;09:04:00;1018,1;17,9;86;21,7;70;;;0,0
21/04/2026;09:09:00;1018,1;18,1;83;21,8;70;;;0,0
21/04/2026;09:14:00;1018,1;18,3;82;21,9;70;;;0,0
21/04/2026;09:19:00;1018,0;18,6;81;22,1;70;;;0,0
21/04/2026;09:24:00;1018,0;18,8;80;22,2;70;;;0,0
21/04/2026;09:29:00;1018,0;18,9;80;22,3;70;;;0,0
21/04/2026;09:34:00;1017,9;19,1;80;22,4;70;;;0,0
21/04/2026;09:39:00;1017,9;19,3;79;22,6;70;;;0,0
21/04/2026;09:44:00;1017,9;19,5;78;22,7;70;;;0,0
21/04/2026;09:49:00;1017,9;19,5;79;22,9;70;;;0,0
21/04/2026;09:54:00;1018,0;19,6;80;23,0;70;;;0,0
21/04/2026;09:59:00;1017,9;19,7;78;23,2;70;;;0,0
21/04/2026;10:04:00;1017,8;19,5;80;23,4;70;;;0,0
21/04/2026;10:09:00;1017,8;19,7;81;23,6;70;;;0,0
21/04/2026;10:14:00;1017,7;20,0;80;23,8;70;;;0,0
21/04/2026;10:19:00;1017,7;20,0;79;24,0;70;;;0,0
21/04/2026;10:24:00;1017,6;20,0;79;24,2;70;;;0,0
21/04/2026;10:29:00;1017,5;20,0;81;24,4;70;;;0,0
21/04/2026;10:34:00;1017,5;20,1;82;24,6;70;;;0,0
21/04/2026;10:39:00;1017,5;20,2;82;24,7;70;;;0,0
21/04/2026;10:44:00;1017,5;20,6;80;24,9;70;;;0,0
21/04/2026;10:49:00;1017,4;20,7;78;25,1;70;;;0,0
21/04/2026;10:54:00;1017,3;20,6;78;25,3;70;;;0,0
21/04/2026;10:59:00;1017,4;20,4;80;25,4;69;;;0,0
21/04/2026;11:04:00;1017,3;20,3;81;25,5;69;;;0,0
21/04/2026;11:09:00;1017,5;20,2;82;25,6;69;;;0,0
21/04/2026;11:14:00;1017,5;20,3;81;25,7;69;;;0,0
21/04/2026;11:19:00;1017,4;20,5;81;25,7;69;;;0,0
21/04/2026;11:24:00;1017,2;20,6;79;25,9;70;;;0,0
21/04/2026;11:29:00;1017,1;20,6;79;26,0;69;;;0,0
21/04/2026;11:34:00;1017,2;20,8;79;26,1;70;;;0,0
21/04/2026;11:39:00;1017,2;21,2;78;26,2;70;;;0,0
21/04/2026;11:44:00;1017,1;21,5;76;26,4;70;;;0,0
21/04/2026;11:49:00;1017,0;21,8;75;26,6;70;;;0,0
21/04/2026;11:54:00;1016,9;21,9;75;26,8;70;;;0,0
21/04/2026;11:59:00;1016,9;22,3;74;27,0;70;;;0,0
21/04/2026;12:04:00;1016,9;22,7;72;27,2;71;;;0,0
21/04/2026;12:09:00;1016,7;23,0;71;27,5;71;;;0,0
21/04/2026;12:14:00;1016,8;23,3;71;27,8;70;;;0,0
21/04/2026;12:19:00;1016,7;23,6;70;28,1;70;;;0,0
21/04/2026;12:24:00;1016,7;23,7;69;28,3;69;;;0,0
21/04/2026;12:29:00;1016,6;23,8;69;28,5;69;;;0,0
21/04/2026;12:34:00;1016,5;23,7;69;28,7;69;;;0,0
21/04/2026;12:39:00;1016,4;23,3;70;28,8;68;;;0,0
21/04/2026;12:44:00;1016,4;23,1;71;28,8;68;;;0,0
21/04/2026;12:49:00;1016,3;23,0;72;28,7;68;;;0,0
21/04/2026;12:54:00;1016,3;23,2;71;28,7;69;;;0,0
21/04/2026;12:59:00;1016,3;23,7;70;28,8;69;;;0,0
21/04/2026;13:04:00;1016,3;24,0;69;29,0;70;;;0,0
21/04/2026;13:09:00;1016,3;23,9;69;29,2;70;;;0,0
21/04/2026;13:14:00;1016,3;23,6;70;29,4;69;;;0,0
21/04/2026;13:19:00;1016,2;23,5;70;29,5;69;;;0,0
21/04/2026;13:24:00;1016,1;23,5;71;29,6;69;;;0,0
21/04/2026;13:29:00;1016,1;23,6;70;29,7;69;;;0,0
21/04/2026;13:34:00;1015,9;23,6;70;29,7;69;;;0,0
21/04/2026;13:39:00;1015,8;23,5;70;29,8;69;;;0,0
21/04/2026;13:44:00;1015,7;23,7;69;30,0;69;;;0,0
21/04/2026;13:49:00;1015,6;23,8;69;30,2;69;;;0,0
21/04/2026;13:54:00;1015,6;23,8;69;30,3;69;;;0,0
21/04/2026;13:59:00;1015,6;24,0;69;30,5;69;;;0,0
21/04/2026;14:04:00;1015,6;24,0;69;30,7;68;;;0,0
21/04/2026;14:09:00;1015,5;23,8;69;30,8;68;;;0,0
21/04/2026;14:14:00;1015,4;23,6;70;30,8;68;;;0,0
21/04/2026;14:19:00;1015,4;23,3;71;30,8;67;;;0,0
21/04/2026;14:24:00;1015,3;23,2;71;30,6;67;;;0,0
21/04/2026;14:29:00;1015,2;23,1;71;30,4;68;;;0,0
21/04/2026;14:34:00;1015,1;22,9;72;30,2;68;;;0,0
21/04/2026;14:39:00;1015,1;22,7;72;30,0;68;;;0,0
21/04/2026;14:44:00;1015,1;22,6;73;29,8;68;;;0,0
21/04/2026;14:49:00;1015,0;22,6;73;29,7;69;;;0,0
21/04/2026;14:54:00;1015,0;22,6;73;29,6;69;;;0,0
21/04/2026;14:59:00;1015,0;22,8;72;29,5;70;;;0,0
21/04/2026;15:04:00;1015,0;22,9;71;29,6;70;;;0,0
21/04/2026;15:09:00;1015,0;23,0;72;29,6;70;;;0,0
21/04/2026;15:14:00;1015,0;23,2;71;29,7;70;;;0,0
21/04/2026;15:19:00;1015,0;23,1;71;29,8;69;;;0,0
21/04/2026;15:24:00;1015,0;23,0;72;29,9;69;;;0,0
21/04/2026;15:29:00;1014,9;22,8;72;29,8;68;;;0,0
21/04/2026;15:34:00;1014,9;22,8;73;29,8;68;;;0,0
21/04/2026;15:39:00;1014,9;22,8;73;29,7;69;;;0,0
21/04/2026;15:44:00;1014,9;22,9;72;29,7;69;;;0,0
21/04/2026;15:49:00;1014,8;23,0;72;29,8;69;;;0,0
21/04/2026;15:54:00;1014,7;22,8;73;29,7;68;;;0,0
21/04/2026;15:59:00;1014,8;22,5;73;29,6;68;;;0,0
21/04/2026;16:04:00;1014,8;22,3;74;29,4;68;;;0,0
21/04/2026;16:09:00;1014,8;22,2;75;29,3;68;;;0,0
21/04/2026;16:14:00;1014,9;22,1;75;29,1;69;;;0,0
21/04/2026;16:19:00;1014,9;22,0;76;28,9;69;;;0,0
21/04/2026;16:24:00;1014,9;22,0;76;28,8;69;;;0,0
21/04/2026;16:29:00;1014,9;22,1;76;28,8;70;;;0,0
21/04/2026;16:34:00;1014,9;22,2;75;28,9;70;;;0,0
21/04/2026;16:39:00;1014,9;22,2;75;28,9;69;;;0,0
21/04/2026;16:44:00;1014,9;22,2;75;28,9;69;;;0,0
21/04/2026;16:49:00;1015,0;22,2;75;28,9;69;;;0,0
21/04/2026;16:54:00;1014,9;22,2;74;28,9;69;;;0,0
21/04/2026;16:59:00;1015,0;22,0;75;28,8;69;;;0,0
21/04/2026;17:04:00;1015,0;21,8;76;28,6;69;;;0,0
21/04/2026;17:09:00;1015,0;21,6;77;28,4;69;;;0,0
21/04/2026;17:14:00;1015,0;21,5;77;28,2;69;;;0,0
21/04/2026;17:19:00;1015,0;21,3;78;28,0;69;;;0,0
21/04/2026;17:24:00;1015,0;21,2;78;27,8;69;;;0,0
21/04/2026;17:29:00;1015,0;21,1;78;27,6;69;;;0,0
21/04/2026;17:34:00;1015,0;21,0;79;27,3;69;;;0,0
21/04/2026;17:39:00;1015,0;20,9;80;27,1;70;;;0,0
21/04/2026;17:44:00;1015,0;20,8;80;27,0;70;;;0,0
21/04/2026;17:49:00;1014,9;20,7;81;26,8;70;;;0,0
21/04/2026;17:54:00;1015,0;20,6;82;26,6;70;;;0,0
21/04/2026;17:59:00;1015,0;20,4;83;26,5;70;;;0,0
21/04/2026;18:04:00;1015,0;20,3;84;26,3;70;;;0,0
21/04/2026;18:09:00;1015,0;20,2;84;26,2;70;;;0,0
21/04/2026;18:14:00;1015,0;20,1;85;26,1;70;;;0,0
21/04/2026;18:19:00;1015,0;20,0;85;26,0;70;;;0,0
21/04/2026;18:24:00;1015,1;20,0;86;25,9;70;;;0,0
21/04/2026;18:29:00;1015,1;19,9;86;25,8;70;;;0,0
21/04/2026;18:34:00;1015,2;19,8;87;25,7;70;;;0,0
21/04/2026;18:39:00;1015,2;19,8;88;25,7;70;;;0,0
21/04/2026;18:44:00;1015,2;19,7;88;25,6;70;;;0,0
21/04/2026;18:49:00;1015,3;19,6;88;25,5;70;;;0,0
21/04/2026;18:54:00;1015,3;19,6;89;25,5;70;;;0,0
21/04/2026;18:59:00;1015,3;19,5;90;25,4;70;;;0,0
21/04/2026;19:04:00;1015,4;19,4;91;25,4;70;;;0,0
21/04/2026;19:09:00;1015,4;19,4;91;25,3;70;;;0,0
21/04/2026;19:14:00;1015,4;19,3;92;25,2;70;;;0,0
21/04/2026;19:19:00;1015,5;19,3;92;25,1;70;;;0,0
21/04/2026;19:24:00;1015,5;19,2;93;25,1;70;;;0,0
21/04/2026;19:29:00;1015,5;19,1;94;25,0;70;;;0,0
21/04/2026;19:34:00;1015,5;19,1;95;24,9;70;;;0,0
21/04/2026;19:39:00;1015,6;19,0;96;24,8;70;;;0,0
21/04/2026;19:44:00;1015,7;18,9;98;24,8;70;;;0,0
21/04/2026;19:49:00;1015,7;18,8;99;24,7;70;;;0,0
21/04/2026;19:54:00;1015,8;18,7;;24,6;70;;;0,0
21/04/2026;19:59:00;1015,8;18,6;;24,5;70;;;0,0
21/04/2026;20:04:00;1015,8;18,5;;24,5;70;;;0,0
21/04/2026;20:09:00;1015,8;18,3;;24,4;70;;;0,0
21/04/2026;20:14:00;1015,8;18,2;;24,3;70;;;0,0
21/04/2026;20:19:00;1015,8;18,1;;24,3;70;;;0,0
21/04/2026;20:24:00;1015,9;18,0;;24,2;70;;;0,0
21/04/2026;20:29:00;1016,0;17,9;;24,1;70;;;0,0
21/04/2026;20:34:00;1016,0;17,8;;24,1;70;;;0,0
21/04/2026;20:39:00;1016,0;17,7;;24,0;70;;;0,0
21/04/2026;20:44:00;1016,0;17,7;;24,0;70;;;0,0
21/04/2026;20:49:00;1016,1;17,6;;24,0;70;;;0,0
21/04/2026;20:54:00;1016,1;17,5;;23,9;70;;;0,0
21/04/2026;20:59:00;1016,1;17,4;;23,9;70;;;0,0
21/04/2026;21:04:00;1016,1;17,3;;23,8;69;;;0,0
21/04/2026;21:09:00;1016,1;17,2;;23,8;69;;;0,0
21/04/2026;21:14:00;1016,2;17,0;;23,7;69;;;0,0
21/04/2026;21:19:00;1016,2;16,9;;23,7;69;;;0,0
21/04/2026;21:24:00;1016,2;16,8;;23,7;69;;;0,0
21/04/2026;21:29:00;1016,3;16,6;;23,7;69;;;0,0
21/04/2026;21:34:00;1016,4;16,4;;23,6;69;;;0,0
21/04/2026;21:39:00;1016,4;16,3;;23,6;69;;;0,0
21/04/2026;21:44:00;1016,4;16,1;;23,6;69;;;0,0
21/04/2026;21:49:00;1016,4;15,9;;23,5;69;;;0,0
21/04/2026;21:54:00;1016,4;15,7;;23,5;69;;;0,0
21/04/2026;21:59:00;1016,5;15,5;;23,4;69;;;0,0
21/04/2026;22:04:00;1016,5;15,4;2;23,4;69;;;0,0
21/04/2026;22:09:00;1016,5;15,2;0;23,4;69;;;0,0
21/04/2026;22:14:00;1016,6;15,1;0;23,3;69;;;0,0
21/04/2026;22:19:00;1016,6;15,1;1;23,3;69;;;0,0
21/04/2026;22:24:00;1016,5;15,0;0;23,3;69;;;0,0
21/04/2026;22:29:00;1016,4;15,0;0;23,3;69;;;0,0
21/04/2026;22:34:00;1016,4;14,9;0;23,3;69;;;0,0
21/04/2026;22:39:00;1016,4;14,9;0;23,2;69;;;0,0
21/04/2026;22:44:00;1016,4;15,0;1;23,2;69;;;0,0
21/04/2026;22:49:00;1016,4;15,0;21;23,2;69;;;0,0
21/04/2026;22:54:00;1016,4;15,1;;23,2;69;;;0,0
21/04/2026;22:59:00;1016,5;15,1;;23,1;69;;;0,0
21/04/2026;23:04:00;1016,5;15,1;;23,1;69;;;0,0
21/04/2026;23:09:00;1016,5;15,1;;23,0;69;;;0,0
21/04/2026;23:14:00;1016,5;15,3;;22,9;69;;;0,0
21/04/2026;23:19:00;1016,5;15,3;;22,9;70;;;0,0
21/04/2026;23:24:00;1016,6;15,4;;22,9;70;;;0,0
21/04/2026;23:29:00;1016,5;15,5;;22,9;70;;;0,0
21/04/2026;23:34:00;1016,5;15,6;;22,9;70;;;0,0
21/04/2026;23:39:00;1016,5;15,8;;22,9;70;;;0,0
21/04/2026;23:44:00;1016,5;15,8;;23,0;70;;;0,0
21/04/2026;23:49:00;1016,5;15,9;;23,0;70;;;0,0
21/04/2026;23:54:00;1016,4;15,9;;23,1;70;;;0,0
21/04/2026;23:59:00;1016,4;15,9;;23,1;70;;;0,0
